| time (UTC) | temp C | wind direction | speed KPH | gust KPH | rain 1hr cm | rain 24hr cm | rain mn cm | humidity % | barometer mb |
| 20260903040048 | 17 | 321 | 0.0 | 0.0 | 0.03 | 0.08 | 0.08 | 75 | 1003.2 |
| 20260903034547 | 17 | 321 | 0.0 | 0.0 | 0.03 | 0.08 | 0.08 | 75 | 1003.0 |
| 20260903033051 | 18 | 321 | 0.0 | 0.0 | 0.08 | 0.08 | 0.08 | 74 | 1002.8 |
| 20260903031550 | 18 | 321 | 0.0 | 0.0 | 0.08 | 0.08 | 0.08 | 72 | 1003.2 |
| 20260903030107 | 20 | 321 | 0.0 | 0.0 | 0.05 | 0.05 | 0.05 | 63 | 1002.8 |
| 20260903024541 | 21 | 321 | 0.0 | 3.2 | 0.05 | 0.05 | 0.05 | 54 | 1003.3 |
| 20260903023041 | 22 | 321 | 0.0 | 0.0 | 0.00 | 0.00 | 0.00 | 48 | 1002.7 |
| 20260903021540 | 22 | 360 | 0.0 | 6.4 | 0.00 | 0.00 | 0.00 | 46 | 1002.2 |
| 20260903020039 | 23 | 5 | 0.0 | 12.9 | 0.00 | 0.00 | 0.00 | 44 | 1001.7 |
| 20260903014539 | 23 | 346 | 0.0 | 0.0 | 0.00 | 0.00 | 0.00 | 42 | 1001.9 |
| 20260903013044 | 24 | 20 | 0.0 | 6.4 | 0.00 | 0.00 | 0.00 | 40 | 1001.7 |
| 20260903011543 | 25 | 346 | 0.0 | 0.0 | 0.00 | 0.00 | 0.00 | 37 | 1001.6 |
| 20260903010040 | 25 | 360 | 0.0 | 0.0 | 0.00 | 0.00 | 0.00 | 36 | 1001.5 |
| 20260903004537 | 25 | 355 | 0.0 | 1.6 | 0.00 | 0.00 | 0.00 | 35 | 1001.5 |
| 20260903003040 | 26 | 283 | 0.0 | 1.6 | 0.00 | 0.00 | 0.00 | 34 | 1001.5 |
| 20260903001536 | 26 | 279 | 0.0 | 4.8 | 0.00 | 0.00 | 0.00 | 32 | 1001.5 |
| 20260903000038 | 27 | 286 | 0.0 | 11.3 | 0.00 | 0.00 | 0.00 | 30 | 1001.3 |
| 20260902234535 | 28 | 293 | 0.0 | 12.9 | 0.00 | 0.00 | 0.00 | 30 | 1001.3 |
| 20260902233035 | 28 | 247 | 1.6 | 12.9 | 0.00 | 0.00 | 0.00 | 28 | 1001.5 |
| 20260902231541 | 28 | 254 | 1.6 | 16.1 | 0.00 | 0.00 | 0.00 | 27 | 1001.6 |
| 20260902230033 | 28 | 283 | 0.0 | 17.7 | 0.00 | 0.00 | 0.00 | 27 | 1001.8 |
| 20260902224549 | 28 | 121 | 0.0 | 0.0 | 0.00 | 0.00 | 0.00 | 28 | 1001.6 |
| 20260902223046 | 28 | 90 | 0.0 | 3.2 | 0.00 | 0.00 | 0.00 | 28 | 1001.1 |
| 20260902221542 | 28 | 360 | 0.0 | 3.2 | 0.00 | 0.00 | 0.00 | 25 | 1000.8 |
| 20260902220050 | 28 | 360 | 0.0 | 17.7 | 0.00 | 0.00 | 0.00 | 25 | 1001.0 |
| 20260902214528 | 28 | 360 | 0.0 | 4.8 | 0.00 | 0.00 | 0.00 | 24 | 1001.3 |
| 20260902213027 | 28 | 360 | 0.0 | 9.7 | 0.00 | 0.00 | 0.00 | 25 | 1001.6 |
| 20260902211526 | 28 | 360 | 0.0 | 6.4 | 0.00 | 0.00 | 0.00 | 27 | 1001.8 |
| 20260902210024 | 28 | 360 | 0.0 | 14.5 | 0.00 | 0.00 | 0.00 | 24 | 1002.0 |
| 20260902204525 | 28 | 110 | 1.6 | 14.5 | 0.00 | 0.00 | 0.00 | 28 | 1002.3 |
| 20260902203019 | 29 | 38 | 1.6 | 12.9 | 0.00 | 0.00 | 0.00 | 29 | 1002.6 |
| 20260902201534 | 28 | 148 | 0.0 | 8.0 | 0.00 | 0.00 | 0.00 | 27 | 1002.8 |
| 20260902200014 | 28 | 360 | 1.6 | 24.1 | 0.00 | 0.00 | 0.00 | 26 | 1003.0 |
| 20260902194526 | 28 | 86 | 0.0 | 17.7 | 0.00 | 0.00 | 0.00 | 26 | 1003.1 |
| 20260902193032 | 28 | 360 | 1.6 | 11.3 | 0.00 | 0.00 | 0.00 | 26 | 1003.4 |
| 20260902191510 | 27 | 360 | 1.6 | 6.4 | 0.00 | 0.00 | 0.00 | 30 | 1003.7 |
| 20260902190012 | 28 | 20 | 0.0 | 8.0 | 0.00 | 0.00 | 0.00 | 29 | 1003.7 |
| 20260902184511 | 27 | 360 | 1.6 | 6.4 | 0.00 | 0.00 | 0.00 | 29 | 1003.9 |
| 20260902183003 | 28 | 360 | 0.0 | 4.8 | 0.00 | 0.00 | 0.00 | 30 | 1004.2 |
| 20260902181611 | 28 | 94 | 0.0 | 4.8 | 0.00 | 0.00 | 0.00 | 27 | 1004.5 |
| 20260902180100 | 27 | 360 | 1.6 | 16.1 | 0.00 | 0.00 | 0.00 | 31 | 1004.7 |
| 20260902174553 | 26 | 360 | 0.0 | 12.9 | 0.00 | 0.00 | 0.00 | 29 | 1004.9 |
| 20260902173051 | 26 | 360 | 0.0 | 14.5 | 0.00 | 0.00 | 0.00 | 34 | 1005.0 |
| 20260902171553 | 26 | 83 | 1.6 | 9.7 | 0.00 | 0.00 | 0.00 | 34 | 1005.2 |
| 20260902170041 | 26 | 360 | 0.0 | 20.9 | 0.00 | 0.00 | 0.00 | 35 | 1005.4 |
| 20260902163040 | 25 | 114 | 1.6 | 14.5 | 0.00 | 0.00 | 0.00 | 39 | 1005.6 |
| 20260902161534 | 24 | 360 | 1.6 | 14.5 | 0.00 | 0.00 | 0.00 | 41 | 1005.5 |
| 20260902160028 | 23 | 113 | 1.6 | 8.0 | 0.00 | 0.00 | 0.00 | 42 | 1005.6 |
| 20260902154524 | 23 | 360 | 3.2 | 14.5 | 0.00 | 0.00 | 0.00 | 42 | 1005.6 |
| 20260902153040 | 23 | 101 | 1.6 | 11.3 | 0.00 | 0.00 | 0.00 | 41 | 1005.5 |
| 20260902151517 | 22 | 360 | 1.6 | 9.7 | 0.00 | 0.00 | 0.00 | 45 | 1005.4 |
| 20260902150011 | 22 | 360 | 1.6 | 9.7 | 0.00 | 0.00 | 0.00 | 45 | 1005.5 |
| 20260902144506 | 22 | 71 | 0.0 | 9.7 | 0.00 | 0.00 | 0.00 | 44 | 1005.5 |
| 20260902143001 | 21 | 71 | 0.0 | 1.6 | 0.00 | 0.00 | 0.00 | 45 | 1005.6 |
| 20260902141558 | 21 | 75 | 0.0 | 8.0 | 0.00 | 0.00 | 0.00 | 46 | 1005.7 |
| 20260902140052 | 20 | 360 | 0.0 | 3.2 | 0.00 | 0.00 | 0.00 | 54 | 1005.6 |
| 20260902134554 | 20 | 59 | 0.0 | 1.6 | 0.00 | 0.00 | 0.00 | 47 | 1005.8 |
| 20260902133044 | 18 | 250 | 0.0 | 0.0 | 0.00 | 0.00 | 0.00 | 50 | 1005.6 |
| 20260902131544 | 17 | 259 | 0.0 | 0.0 | 0.00 | 0.00 | 0.00 | 55 | 1005.5 |
| 20260902130038 | 17 | 259 | 0.0 | 0.0 | 0.00 | 0.00 | 0.00 | 54 | 1005.2 |
| 20260902124531 | 16 | 154 | 0.0 | 0.0 | 0.00 | 0.00 | 0.00 | 55 | 1005.3 |
| 20260902123033 | 17 | 86 | 0.0 | 1.6 | 0.00 | 0.00 | 0.00 | 52 | 1005.1 |
| 20260902121529 | 17 | 273 | 0.0 | 0.0 | 0.00 | 0.00 | 0.00 | 50 | 1005.0 |
| 20260902120028 | 18 | 269 | 0.0 | 4.8 | 0.00 | 0.00 | 0.00 | 48 | 1004.8 |
| 20260902114529 | 15 | 263 | 0.0 | 0.0 | 0.00 | 0.00 | 0.00 | 59 | 1004.7 |
| 20260902113034 | 15 | 263 | 0.0 | 0.0 | 0.00 | 0.00 | 0.00 | 58 | 1004.8 |
| 20260902111523 | 16 | 263 | 0.0 | 0.0 | 0.00 | 0.00 | 0.00 | 57 | 1004.8 |
| 20260902110033 | 16 | 263 | 0.0 | 0.0 | 0.00 | 0.00 | 0.00 | 55 | 1004.8 |
| 20260902104522 | 16 | 263 | 0.0 | 0.0 | 0.00 | 0.00 | 0.00 | 55 | 1004.9 |
| 20260902103119 | 16 | 263 | 0.0 | 0.0 | 0.00 | 0.00 | 0.00 | 54 | 1005.0 |
| 20260902101518 | 16 | 263 | 0.0 | 0.0 | 0.00 | 0.00 | 0.00 | 55 | 1005.0 |
| 20260902100018 | 16 | 263 | 0.0 | 0.0 | 0.00 | 0.00 | 0.00 | 55 | 1005.0 |
| 20260902094522 | 16 | 263 | 0.0 | 0.0 | 0.00 | 0.00 | 0.00 | 55 | 1005.1 |
| 20260902093029 | 17 | 263 | 0.0 | 0.0 | 0.00 | 0.00 | 0.00 | 54 | 1005.1 |
| 20260902091515 | 16 | 263 | 0.0 | 0.0 | 0.00 | 0.00 | 0.00 | 55 | 1005.1 |
| 20260902090014 | 17 | 262 | 0.0 | 0.0 | 0.00 | 0.00 | 0.00 | 54 | 1005.0 |
| 20260902084513 | 17 | 262 | 0.0 | 0.0 | 0.00 | 0.00 | 0.00 | 52 | 1004.8 |
| 20260902083009 | 17 | 262 | 0.0 | 0.0 | 0.00 | 0.00 | 0.00 | 52 | 1004.8 |
| 20260902081506 | 18 | 262 | 0.0 | 0.0 | 0.00 | 0.00 | 0.00 | 51 | 1004.9 |
| 20260902080003 | 18 | 262 | 0.0 | 0.0 | 0.00 | 0.00 | 0.00 | 48 | 1005.0 |
| 20260902074501 | 18 | 262 | 0.0 | 0.0 | 0.00 | 0.08 | 0.00 | 47 | 1005.0 |
| 20260902073102 | 19 | 262 | 0.0 | 0.0 | 0.00 | 0.08 | 0.00 | 46 | 1004.9 |
| 20260902071556 | 20 | 263 | 0.0 | 0.0 | 0.00 | 0.08 | 0.00 | 46 | 1004.9 |
| 20260902070052 | 20 | 263 | 0.0 | 0.0 | 0.00 | 0.08 | 0.00 | 44 | 1004.8 |
| 20260902064551 | 20 | 263 | 0.0 | 1.6 | 0.00 | 0.08 | 0.00 | 44 | 1004.9 |
| 20260902063050 | 21 | 261 | 0.0 | 9.7 | 0.00 | 0.08 | 0.00 | 43 | 1004.8 |
| 20260902061559 | 20 | 259 | 0.0 | 4.8 | 0.00 | 0.08 | 0.00 | 42 | 1004.9 |
| 20260902060056 | 20 | 277 | 0.0 | 4.8 | 0.00 | 0.08 | 0.00 | 43 | 1004.9 |
| 20260902054605 | 20 | 273 | 0.0 | 1.6 | 0.00 | 0.08 | 0.08 | 44 | 1005.1 |
| 20260902053059 | 21 | 263 | 0.0 | 4.8 | 0.00 | 0.08 | 0.08 | 42 | 1005.1 |
| 20260902051546 | 21 | 277 | 0.0 | 1.6 | 0.00 | 0.08 | 0.08 | 42 | 1005.0 |
| 20260902050045 | 21 | 285 | 0.0 | 3.2 | 0.00 | 0.08 | 0.08 | 44 | 1005.1 |
| 20260902044542 | 21 | 281 | 0.0 | 4.8 | 0.00 | 0.08 | 0.08 | 47 | 1005.1 |
| 20260902043045 | 21 | 271 | 0.0 | 6.4 | 0.00 | 0.08 | 0.08 | 48 | 1005.5 |
| 20260902041546 | 21 | 269 | 0.0 | 0.0 | 0.00 | 0.08 | 0.08 | 48 | 1005.6 |